Regional Weather Roundup
Issued by NWS

Home | Current Version | Previous Version | Text Only | Print | Product List | Glossary On
Versions: 1 2 3 4 5 6 7 8 9 10 11 12 13 14 15 16 17 18 19 20 21 22 23 24 25 26 27
000
ASUS45 KBOI 170510
RWRID

IDAHO REGIONAL WEATHER ROUNDUP
NATIONAL WEATHER SERVICE BOISE ID
1000 PM MST SAT DEC 16 2017

NOTE: "FAIR" INDICATES FEW OR NO CLOUDS BELOW 12000 FEET
WITH NO SIGNIFICANT WEATHER AND/OR OBSTRUCTIONS TO VISIBILITY

IDZ012-014-170600-
SOUTHWEST IDAHO


CITY           SKY/WX    TMP DP  RH WIND       PRES   REMARKS
BOISE          CLEAR     28  22  78 W8        30.19R WCI  20
CALDWELL       CLEAR     28  23  81 SW6       30.23R WCI  22
MOUNTAIN HOME  CLEAR     29  29  98 NW17      30.15R WCI  17
$$

IDZ016-017-170600-
SOUTHCENTRAL IDAHO


CITY           SKY/WX    TMP DP  RH WIND       PRES   REMARKS
BURLEY         CLOUDY    31  24  75 W9        30.12R WCI  23
JEROME         CLOUDY    28  24  85 SW13      30.13R WCI  17
TWIN FALLS     FLURRIES  27  24  89 SW14      30.14R WCI  16
$$

IDZ019>023-170600-
SOUTHEAST IDAHO


CITY           SKY/WX    TMP DP  RH WIND       PRES   REMARKS
IDAHO FALLS    CLOUDY    22  21  96 W6        30.09R WCI  14
POCATELLO      CLOUDY    27  24  89 W12       30.11R WCI  17
REXBURG        CLOUDY    22  21  96 SW6       30.07R WCI  14
$$

IDZ006-010-011-018-031-032-170600-
CENTRAL IDAHO MOUNTAINS


CITY           SKY/WX    TMP DP  RH WIND       PRES   REMARKS
MCCALL         PTCLDY    16  10  77 CALM      30.11R
HAILEY         PTCLDY    21  18  86 NW8       30.08R WCI  12
STANLEY          N/A      8   3  80 CALM      30.07R
SALMON         CLOUDY    17  12  80 SE5       30.15S WCI  10
CHALLIS        CLEAR     18  10  71 SE3       30.11R
$$

IDZ002-004-006-007-026-170600-
NORTHERN IDAHO


CITY           SKY/WX    TMP DP  RH WIND       PRES   REMARKS
LEWISTON       CLOUDY    25  24  96 S3        30.29F
LOWELL           N/A     29  26  89 S5        30.34S WCI  24
COEUR D`ALENE  CLOUDY    22  19  89 CALM      30.23S
MULLAN PASS    CLOUDY    18  13  80 S5        30.04R HAZE    WCI  11
$$




USA.gov is the U.S. government's official web portal to all federal, state and local government web resources and services.